Date String (YYYY-MM-DD hh:mm:ss) UTC,Instrument flags,Ambient pressure (hPa),Sample flow (lpm),Bypass flow (lpm),Sample temperature (°C),Ambient temperature (°C),ASC tube jacket temperature (°C),LED temperature (°C),Box temperature (°C),Sample RH (%),Span deviation,Mass concentration (μg/m³),Mass concentration (μg/m³),Mass concentration (μg/m³)
DateTimeUTC,F1_M11,P_M11,Q1_M11,Q2_M11,T1_M11,T2_M11,T3_M11,T4_M11,T5_M11,U1_M11,ZSPAN_M11,X0_M11,X2_M11,X1_M11
2021-09-06 03:00:00,,0830.7,5.00,0.00,29.6,28.3,00.0,38.6,31.3,11.0,0002.7,0019.10,0010.31,0009.50
2021-09-06 03:01:00,,0830.7,5.00,0.00,29.5,26.4,00.0,38.5,30.8,11.1,0002.8,0019.41,0010.36,0009.53
2021-09-06 03:02:00,,0830.6,5.01,0.00,29.4,26.2,00.0,38.5,30.8,11.2,0003.0,0019.52,0010.38,0009.54
2021-09-06 03:03:00,,0830.6,5.00,0.00,29.3,26.5,00.0,38.5,30.8,11.2,0003.0,0019.77,0010.43,0009.57
2021-09-06 03:04:00,,0830.7,4.98,0.00,29.3,26.9,00.0,38.5,30.9,11.3,0003.1,0019.89,0010.41,0009.57
2021-09-06 03:05:00,,0830.7,5.01,0.00,29.3,27.3,00.0,38.4,30.9,11.2,0003.4,0019.96,0010.42,0009.58
2021-09-06 03:06:00,,0830.7,5.00,0.00,29.3,27.6,00.0,38.4,31.0,11.2,0003.7,0019.96,0010.40,0009.57
2021-09-06 03:07:00,,0830.8,5.01,0.00,29.3,27.9,00.0,38.4,31.1,11.2,0003.8,0019.22,0010.35,0009.56
2021-09-06 03:08:00,,0830.8,4.99,0.00,29.4,28.1,00.0,38.4,31.2,11.2,0004.0,0018.53,0010.34,0009.56
2021-09-06 03:09:00,,0830.8,5.00,0.00,29.4,28.3,00.0,38.5,31.2,11.1,0004.0,0016.68,0010.35,0009.57
2021-09-06 03:10:00,,0830.8,5.00,0.00,29.5,28.4,00.0,38.5,31.3,11.2,0003.7,0015.88,0010.33,0009.57
2021-09-06 03:11:00,,0830.8,4.99,0.00,29.5,28.5,00.0,38.5,31.3,11.1,0003.4,0016.25,0010.33,0009.58
2021-09-06 03:12:00,,0830.8,5.02,0.00,29.6,28.6,00.0,38.5,31.4,11.1,0003.5,0016.09,0010.33,0009.59
2021-09-06 03:13:00,,0830.7,5.00,0.00,29.6,28.7,00.0,38.5,31.4,11.1,0003.7,0016.02,0010.29,0009.57
2021-09-06 03:14:00,,0830.8,5.00,0.00,29.6,28.8,00.0,38.6,31.5,11.0,0003.6,0015.81,0010.25,0009.56
2021-09-06 03:15:00,,0830.7,5.00,0.00,29.7,28.8,00.0,38.6,31.5,11.0,0003.4,0015.65,0010.25,0009.55
2021-09-06 03:16:00,,0830.7,5.00,0.00,29.6,27.2,00.0,38.6,31.1,11.0,0003.4,0015.55,0010.23,0009.55
2021-09-06 03:17:00,,0830.8,5.00,0.00,29.5,26.1,00.0,38.6,30.8,11.1,0003.4,0015.48,0010.24,0009.56
2021-09-06 03:18:00,,0830.8,5.00,0.00,29.4,26.3,00.0,38.5,30.9,11.2,0003.0,0015.58,0010.31,0009.60
2021-09-06 03:19:00,,0830.7,5.01,0.00,29.4,26.7,00.0,38.5,30.9,11.2,0002.7,0015.24,0010.32,0009.63
2021-09-06 03:20:00,,0830.7,5.00,0.00,29.4,27.1,00.0,38.5,31.0,11.2,0002.1,0015.44,0010.33,0009.65
2021-09-06 03:21:00,,0830.7,4.99,0.00,29.4,27.5,00.0,38.5,31.1,11.2,0002.2,0015.41,0010.34,0009.67
2021-09-06 03:22:00,,0830.8,5.01,0.00,29.4,27.8,00.0,38.5,31.1,11.2,0002.3,0015.06,0010.38,0009.70
2021-09-06 03:23:00,,0830.8,5.00,0.00,29.4,28.0,00.0,38.5,31.2,11.2,0002.4,0015.09,0010.46,0009.71
2021-09-06 03:24:00,,0830.8,5.00,0.00,29.4,28.2,00.0,38.5,31.2,11.1,0002.2,0015.54,0010.49,0009.76
2021-09-06 03:25:00,,0830.9,4.99,0.00,29.5,28.3,00.0,38.5,31.3,11.1,0002.2,0016.00,0010.53,0009.79
2021-09-06 03:26:00,,0830.9,5.00,0.00,29.5,28.5,00.0,38.5,31.3,11.1,0002.1,0017.05,0010.57,0009.81
2021-09-06 03:27:00,,0830.9,5.00,0.00,29.6,28.6,00.0,38.5,31.4,11.1,0001.6,0017.70,0010.62,0009.86
2021-09-06 03:28:00,,0830.9,5.00,0.00,29.6,28.6,00.0,38.6,31.4,11.0,0001.4,0017.81,0010.66,0009.87
2021-09-06 03:29:00,,0830.9,5.00,0.00,29.6,28.7,00.0,38.6,31.4,10.9,0001.5,0017.74,0010.65,0009.88
2021-09-06 03:30:00,,0830.9,5.01,0.00,29.7,28.8,00.0,38.6,31.5,10.9,0002.0,0018.37,0010.67,0009.88
2021-09-06 03:31:00,,0830.9,4.99,0.00,29.7,28.7,00.0,38.6,31.5,10.9,0002.1,0018.38,0010.70,0009.90
2021-09-06 03:32:00,,0830.9,5.01,0.00,29.7,27.2,00.0,38.6,31.1,10.9,0002.3,0019.03,0010.77,0009.92
2021-09-06 03:33:00,,0830.9,5.00,0.00,29.5,26.1,00.0,38.6,30.8,10.9,0001.9,0019.74,0010.80,0009.94
2021-09-06 03:34:00,,0830.9,5.00,0.00,29.4,26.3,00.0,38.6,30.8,11.1,0001.2,0019.59,0010.78,0009.95
2021-09-06 03:35:00,,0830.9,5.00,0.00,29.4,26.7,00.0,38.5,30.9,11.1,0000.8,0019.30,0010.78,0009.94
2021-09-06 03:36:00,,0830.9,4.99,0.00,29.3,27.1,00.0,38.5,31.0,11.1,0000.8,0019.24,0010.83,0009.95
2021-09-06 03:37:00,,0830.9,5.00,0.00,29.3,27.5,00.0,38.5,31.0,11.1,0001.6,0018.23,0010.84,0009.95
2021-09-06 03:38:00,,0830.9,5.01,0.00,29.4,27.7,00.0,38.5,31.1,11.1,0002.0,0017.95,0010.84,0009.96
2021-09-06 03:39:00,,0830.9,5.00,0.00,29.4,28.0,00.0,38.5,31.2,11.1,0002.2,0018.16,0010.81,0009.96
2021-09-06 03:40:00,,0830.9,4.99,0.00,29.4,28.1,00.0,38.5,31.2,11.1,0002.2,0018.09,0010.79,0009.95
2021-09-06 03:41:00,,0830.9,5.01,0.00,29.5,28.3,00.0,38.5,31.2,11.1,0002.5,0017.76,0010.82,0009.97
2021-09-06 03:42:00,,0830.9,4.99,0.00,29.5,28.4,00.0,38.5,31.3,11.1,0002.3,0017.63,0010.82,0009.98
2021-09-06 03:43:00,,0830.9,5.00,0.00,29.5,28.5,00.0,38.6,31.3,11.1,0002.0,0017.13,0010.78,0009.98
2021-09-06 03:44:00,,0830.9,5.01,0.00,29.6,28.6,00.0,38.6,31.4,11.1,0002.4,0016.39,0010.76,0009.98
2021-09-06 03:45:00,,0830.9,5.01,0.00,29.6,28.7,00.0,38.6,31.4,11.1,0002.8,0016.42,0010.75,0009.98
2021-09-06 03:46:00,,0830.9,5.01,0.00,29.7,28.7,00.0,38.6,31.5,11.1,0003.1,0016.91,0010.83,0010.02
2021-09-06 03:47:00,,0830.9,5.00,0.00,29.7,28.8,00.0,38.6,31.5,11.0,0003.2,0017.18,0010.81,0010.03
2021-09-06 03:48:00,,0830.9,5.00,0.00,29.7,28.9,00.0,38.7,31.6,11.1,0003.1,0017.45,0010.79,0010.05
2021-09-06 03:49:00,,0830.9,5.00,0.00,29.8,28.4,00.0,38.7,31.5,11.0,0003.1,0017.40,0010.78,0010.04
2021-09-06 03:50:00,,0830.9,5.01,0.00,29.7,26.6,00.0,38.7,31.0,11.1,0002.9,0017.14,0010.79,0010.05
2021-09-06 03:51:00,,0830.9,5.00,0.00,29.5,26.2,00.0,38.6,30.9,11.1,0002.6,0017.36,0010.79,0010.06
2021-09-06 03:52:00,,0830.9,5.00,0.00,29.5,26.5,00.0,38.6,31.0,11.2,0002.0,0018.01,0010.82,0010.05
2021-09-06 03:53:00,,0831.0,4.99,0.00,29.4,26.9,00.0,38.6,31.0,11.2,0002.1,0017.87,0010.81,0010.04
2021-09-06 03:54:00,,0830.9,5.00,0.00,29.4,27.3,00.0,38.5,31.0,11.2,0002.1,0017.89,0010.83,0010.06
2021-09-06 03:55:00,,0830.9,4.99,0.00,29.4,27.6,00.0,38.5,31.1,11.1,0001.9,0017.96,0010.87,0010.08
2021-09-06 03:56:00,,0830.9,5.01,0.00,29.4,27.9,00.0,38.5,31.2,11.1,0002.1,0017.98,0010.88,0010.09
2021-09-06 03:57:00,,0830.9,5.00,0.00,29.5,28.1,00.0,38.6,31.2,11.1,0002.0,0017.86,0010.86,0010.09
2021-09-06 03:58:00,,0830.9,5.00,0.00,29.5,28.2,00.0,38.6,31.3,11.1,0001.9,0017.96,0010.84,0010.10
2021-09-06 03:59:00,,0830.9,5.00,0.00,29.5,28.4,00.0,38.6,31.3,11.0,0001.8,0018.42,0010.87,0010.10
